FENGYUN 1C DEB, 37438

Orbit data source: Space-Track

FENGYUN 1C DEB, 37438 is space debris in SSO originally from a launch on Mon, 10 May 1999 UTC launched from the Taiyaun Space Center, China (TSC). Fengyun 1C debris stems from the Chinese weather satellite Fengyun-1C, which was intentionally destroyed by a Chinese anti-satellite missile in 2007. This event dramatically increased the amount of space debris, with thousands of trackable fragments posing hazards to satellites and human spaceflight. The Fengyun 1C debris cloud has become a focal point in discussions about space sustainability and the need for international regulations to prevent the creation of new debris.

Loading next visibility...
Identifier
37438, 1999-025EHG
Orbit
SSO
Country
Flag of CNCN / PRC
Related business
Manufacturer
Unknown
Mission
Spacecraft
Bus & Motor
Unknown
Mass
Unknown
Launch date (UTC)
1999-05-10 (27 years ago)
Launch vehicle
Unknown
Launch site
Taiyaun Space Center, China (TSC)
Object type
Payload
Rocket body
Debris
Shape & HBR
Unknown shape, 0.1 m
Radar Cross Section
Small (<0.1 m²)

Expand to show TLE details & history
Last TLE update: 1 week ago

TLE from 1 week ago
0 FENGYUN 1C DEB
1 37438U 99025EHG 26201.37134760  .00000514  00000-0  28176-3 0  9999
2 37438  98.7178 240.8573 0027405 316.3805  43.5203 14.16021475632436
Epoch: 2026-07-20T08:54Z
TLE epoch observation values (Epoch: 2026-07-20T08:54:44.432Z)
Latitude
-0.00001°
Longitude
169.01582°
Altitude
827.429 km
Speed
7.447 km/s
True Right ascension
16h 03m 25s
True Declination
0° 00' 00"
Sunlit
Object was in full shadow at epoch
Visualization orbit readout
Latitude
Unknown
Longitude
Unknown
Altitude
Unknown
Speed
Unknown
Apparent Right ascension
Unknown
Apparent Declination
Unknown
Sunlit
N/A
Visualization observer readout
Local Sidereal Time
09:08:59
Azimuth
Unknown
Elevation
Unknown
Doppler factor
Unknown
Orbital elements
Apogee altitude
855.774 km
Perigee altitude
816.233 km
Semi-major axis
7,214.141 km
Eccentricity
0.00274
Inclination
98.7178°
RAAN
240.8573°
Arg. of periapsis
316.3805°
True anomaly
43.73709°
Mean anomaly
43.5203°
Eccentric anomaly
43.62864°
Mean motion
3.54214 °/min
Orbital period
101.63 mins
BSTAR
0.00028176
Loading maneuver chart data...
Computing Atmospheric mass density...

Documentation

Showing up to 5 results
|